Location: 10033 Water Well
(34.0865°N, 106.8959°W)
Time: 22:06:23
(UTC+00:00)

NOAA 6 - Pass Details

Date: 13 January 2026
Orbit: 767 x 780 km, 98.6° (Epoch: 11 February)

Event Time Altitude Azimuth Distance (km) Brightness Sun altitude
Rises 01:36:40 0° 152° (SSE) 3,221 7.1 -15.9°
Reaches altitude 10° 01:39:01 10° 147° (SSE) 2,299 6.3 -16.4°
Maximum altitude 01:43:54 50° 73° (ENE) 968 4.1 -17.4°
Drops below altitude 10° 01:48:49 10° 359° (N) 2,317 6.4 -18.4°
Sets 01:51:11 0° 354° (N) 3,249 7.2 -18.8°
